FW2000 Weather Reports


Display with metric or nautical units.
time (UTC)temp
F
wind
direction
speed
MPH
gust
MPH
rain 1hr
in
rain 24hr
in
rain mn
in
humidity
%
barometer
mb
20260905140547 59 93 0.0 1.0 0.00 0.00 0.00 60 1014.8
20260905140046 59 93 0.0 3.0 0.00 0.00 0.00 60 1014.7
20260905135547 59 93 1.0 3.0 0.00 0.00 0.00 60 1014.6
20260905135045 59 94 1.0 3.0 0.00 0.00 0.00 60 1014.6
20260905134547 59 93 1.0 3.0 0.00 0.00 0.00 59 1014.6
20260905134043 59 92 2.0 4.0 0.00 0.00 0.00 59 1014.5
20260905133542 59 89 2.0 4.0 0.00 0.00 0.00 59 1014.4
20260905133042 59 92 0.0 3.0 0.00 0.00 0.00 59 1014.3
20260905132543 59 91 2.0 4.0 0.00 0.00 0.00 59 1014.3
20260905132041 59 89 2.0 6.0 0.00 0.00 0.00 59 1014.3
20260905131541 59 88 2.0 6.0 0.00 0.00 0.00 59 1014.3
20260905131041 59 101 2.0 4.0 0.00 0.00 0.00 59 1014.2
20260905130545 59 104 0.0 3.0 0.00 0.00 0.00 59 1014.3
20260905130038 60 105 0.0 4.0 0.00 0.00 0.00 58 1014.4
20260905125538 60 105 0.0 4.0 0.00 0.00 0.00 59 1014.3
20260905125037 59 90 1.0 5.0 0.00 0.00 0.00 59 1014.3
20260905124536 59 85 2.0 5.0 0.00 0.00 0.00 58 1014.3
20260905124036 60 74 2.0 4.0 0.00 0.00 0.00 58 1014.3
20260905123535 60 77 2.0 6.0 0.00 0.00 0.00 57 1014.4
20260905123035 60 77 3.0 6.0 0.00 0.00 0.00 58 1014.5
20260905122535 59 92 2.0 6.0 0.00 0.00 0.00 58 1014.5
20260905122034 59 94 2.0 4.0 0.00 0.00 0.00 58 1014.4
20260905121534 59 81 2.0 5.0 0.00 0.00 0.00 58 1014.5
20260905121034 59 79 3.0 5.0 0.00 0.00 0.00 58 1014.6
20260905120534 59 76 3.0 6.0 0.00 0.00 0.00 58 1014.5
20260905120033 59 71 3.0 6.0 0.00 0.00 0.00 58 1014.6
20260905115532 59 121 1.0 4.0 0.00 0.00 0.00 58 1014.6
20260905115033 59 88 1.0 4.0 0.00 0.00 0.00 58 1014.6
20260905114534 59 84 2.0 4.0 0.00 0.00 0.00 57 1014.6
20260905114032 60 80 2.0 5.0 0.00 0.00 0.00 57 1014.6
20260905113531 60 77 2.0 4.0 0.00 0.00 0.00 57 1014.7
20260905113032 59 78 2.0 4.0 0.00 0.00 0.00 57 1014.6
20260905112530 59 113 1.0 4.0 0.00 0.00 0.00 57 1014.7
20260905112033 59 115 1.0 3.0 0.00 0.00 0.00 57 1014.8
20260905111529 60 117 1.0 3.0 0.00 0.00 0.00 57 1014.9
20260905111030 60 115 0.0 4.0 0.00 0.00 0.00 57 1014.9
20260905110530 60 114 0.0 6.0 0.00 0.00 0.00 57 1015.0
20260905110028 59 107 3.0 6.0 0.00 0.00 0.00 57 1014.9
20260905105533 59 86 2.0 6.0 0.00 0.00 0.00 57 1014.9
20260905105028 59 76 3.0 6.0 0.00 0.00 0.00 58 1014.8
20260905104528 59 107 1.0 4.0 0.00 0.00 0.00 58 1014.9
20260905104028 59 124 2.0 4.0 0.00 0.00 0.00 57 1014.8
20260905103527 59 94 2.0 6.0 0.00 0.00 0.00 57 1014.9
20260905103031 59 111 1.0 3.0 0.00 0.00 0.00 57 1014.9
20260905102526 59 111 1.0 3.0 0.00 0.00 0.00 57 1015.0
20260905102026 59 112 1.0 3.0 0.00 0.00 0.00 57 1015.0
20260905101530 59 120 0.0 3.0 0.00 0.00 0.00 57 1015.0
20260905101031 59 120 1.0 3.0 0.00 0.00 0.00 57 1015.0
20260905100529 59 120 1.0 3.0 0.00 0.00 0.00 57 1015.1
20260905100031 59 121 1.0 3.0 0.00 0.00 0.00 57 1015.0
20260905095527 60 119 1.0 3.0 0.00 0.00 0.00 56 1015.1
20260905095028 60 107 1.0 3.0 0.00 0.00 0.00 56 1015.1
20260905094525 60 91 0.0 3.0 0.00 0.00 0.00 55 1015.0
20260905094025 60 90 0.0 4.0 0.00 0.00 0.00 55 1015.0
20260905093528 60 90 1.0 4.0 0.00 0.00 0.00 55 1015.0
20260905093024 60 105 0.0 4.0 0.00 0.00 0.00 55 1015.1
20260905092524 60 93 1.0 6.0 0.00 0.00 0.00 55 1015.0
20260905092023 60 86 2.0 6.0 0.00 0.00 0.00 55 1015.1
20260905091523 60 85 2.0 3.0 0.00 0.00 0.00 55 1015.2
20260905091022 60 87 2.0 6.0 0.00 0.00 0.00 55 1015.2
20260905090523 60 88 2.0 8.0 0.00 0.00 0.00 55 1015.1
20260905090021 60 66 3.0 8.0 0.00 0.00 0.00 56 1015.2
20260905085521 60 96 2.0 4.0 0.00 0.00 0.00 56 1015.1
20260905085021 60 82 1.0 6.0 0.00 0.00 0.00 56 1015.2
20260905084520 60 51 2.0 6.0 0.00 0.00 0.00 56 1015.2
20260905084020 60 98 2.0 6.0 0.00 0.00 0.00 56 1015.3
20260905083520 59 97 2.0 4.0 0.00 0.00 0.00 57 1015.3
20260905083026 59 90 1.0 8.0 0.00 0.00 0.00 57 1015.2
20260905082520 59 82 2.0 8.0 0.00 0.00 0.00 57 1015.2
20260905082020 59 90 0.0 6.0 0.00 0.00 0.00 57 1015.2
20260905081523 59 96 0.0 6.0 0.00 0.00 0.00 57 1015.2
20260905081019 59 87 1.0 3.0 0.00 0.00 0.00 57 1015.2
20260905080519 59 79 0.0 3.0 0.00 0.00 0.00 57 1015.3
20260905080031 59 79 0.0 4.0 0.00 0.00 0.00 57 1015.2
20260905075517 59 78 2.0 9.0 0.00 0.00 0.00 57 1015.2
20260905075018 59 76 3.0 9.0 0.00 0.00 0.00 57 1015.3
20260905074517 59 62 4.0 6.0 0.00 0.00 0.00 57 1015.2
20260905074016 60 73 1.0 4.0 0.00 0.00 0.00 56 1015.2
20260905073516 60 77 2.0 4.0 0.00 0.00 0.00 56 1015.2
20260905073016 60 91 2.0 4.0 0.00 0.00 0.00 56 1015.2
20260905072516 60 90 1.0 4.0 0.00 0.00 0.00 56 1015.2
20260905072015 60 88 0.0 7.0 0.00 0.00 0.00 56 1015.2
20260905071514 60 96 2.0 7.0 0.00 0.00 0.00 56 1015.2
20260905071014 60 104 1.0 6.0 0.00 0.00 0.00 56 1015.1
20260905070516 60 103 1.0 3.0 0.00 0.00 0.00 55 1015.1
20260905070027 60 98 1.0 4.0 0.00 0.00 0.00 55 1015.1
20260905065511 60 99 0.0 4.0 0.00 0.00 0.00 55 1015.1
20260905065013 60 92 2.0 4.0 0.00 0.00 0.00 55 1015.0
20260905064511 60 89 2.0 4.0 0.00 0.00 0.00 55 1015.0
20260905064013 60 82 3.0 4.0 0.00 0.00 0.00 55 1015.1
20260905063513 60 95 2.0 4.0 0.00 0.00 0.00 55 1015.1
20260905063011 60 96 1.0 4.0 0.00 0.00 0.00 55 1015.0
20260905062510 61 98 2.0 4.0 0.00 0.00 0.00 54 1015.0
20260905062011 61 90 2.0 4.0 0.00 0.00 0.00 54 1015.0
20260905061511 61 31 1.0 3.0 0.00 0.00 0.00 54 1015.0
20260905061011 61 22 1.0 3.0 0.00 0.00 0.00 54 1015.0
20260905060510 61 22 2.0 4.0 0.00 0.00 0.00 54 1015.1
20260905060010 61 19 2.0 4.0 0.00 0.00 0.00 53 1015.0
20260905055513 61 355 1.0 3.0 0.00 0.00 0.00 53 1015.1
20260905055010 61 277 0.0 0.0 0.00 0.00 0.00 53 1015.2
20260905054529 61 277 0.0 0.0 0.00 0.00 0.00 53 1015.1
20260905054009 61 277 0.0 1.0 0.00 0.00 0.00 53 1015.0
20260905053510 61 277 0.0 2.0 0.00 0.00 0.00 53 1015.0
20260905053010 61 277 0.0 1.0 0.00 0.00 0.00 53 1015.1
20260905052510 61 277 0.0 2.0 0.00 0.00 0.00 53 1015.2
20260905052009 61 277 0.0 2.0 0.00 0.00 0.00 53 1015.3
20260905051514 61 276 0.0 1.0 0.00 0.00 0.00 53 1015.2
20260905051009 61 276 0.0 1.0 0.00 0.00 0.00 53 1015.2
20260905050512 61 276 0.0 1.0 0.00 0.00 0.00 53 1015.2
20260905050009 62 276 0.0 1.0 0.00 0.00 0.00 53 1015.2
20260905045508 62 277 0.0 1.0 0.00 0.00 0.00 53 1015.3
20260905045011 62 277 0.0 1.0 0.00 0.00 0.00 53 1015.2
20260905044507 62 277 0.0 0.0 0.00 0.00 0.00 52 1015.1
20260905044007 62 277 0.0 0.0 0.00 0.00 0.00 52 1015.1
20260905043507 62 277 0.0 2.0 0.00 0.00 0.00 52 1015.1
20260905043008 62 277 0.0 2.0 0.00 0.00 0.00 52 1015.1
20260905042507 62 277 0.0 2.0 0.00 0.00 0.00 52 1015.1
20260905042007 62 277 0.0 3.0 0.00 0.00 0.00 52 1015.1
20260905041507 62 277 1.0 3.0 0.00 0.00 0.00 52 1015.0
20260905041006 62 277 0.0 3.0 0.00 0.00 0.00 53 1014.9
20260905040506 62 277 1.0 3.0 0.00 0.00 0.00 53 1014.9
20260905040005 62 277 1.0 3.0 0.00 0.00 0.00 53 1014.9
20260905035505 62 277 1.0 3.0 0.00 0.00 0.00 53 1014.9
20260905035004 62 277 1.0 3.0 0.00 0.00 0.00 53 1014.8
20260905034504 62 277 2.0 3.0 0.00 0.00 0.00 53 1014.7
20260905034003 62 277 2.0 3.0 0.00 0.00 0.00 52 1014.8
20260905033503 62 277 2.0 3.0 0.00 0.00 0.00 52 1014.7
20260905033003 62 276 2.0 6.0 0.00 0.00 0.00 52 1014.6
20260905032503 62 276 2.0 6.0 0.00 0.00 0.00 52 1014.6
20260905032002 62 275 2.0 4.0 0.00 0.00 0.00 52 1014.5
20260905031505 62 273 3.0 4.0 0.00 0.00 0.00 51 1014.4
20260905031001 62 275 3.0 4.0 0.00 0.00 0.00 51 1014.4
20260905030502 63 276 2.0 5.0 0.00 0.00 0.00 50 1014.3
20260905030100 63 281 3.0 5.0 0.00 0.00 0.00 50 1014.3
20260905025559 63 274 2.0 5.0 0.00 0.00 0.00 49 1014.2
20260905025102 63 274 3.0 5.0 0.00 0.00 0.00 49 1014.2
20260905024601 64 261 2.0 6.0 0.00 0.00 0.00 48 1014.2
20260905024059 64 281 3.0 8.0 0.00 0.00 0.00 48 1014.2
20260905023601 64 282 4.0 8.0 0.00 0.00 0.00 48 1014.1
20260905023101 65 271 3.0 7.0 0.00 0.00 0.00 47 1014.1
20260905022558 65 272 3.0 5.0 0.00 0.00 0.00 47 1014.1
20260905022058 65 267 2.0 5.0 0.00 0.00 0.00 47 1014.1
20260905021559 66 271 2.0 6.0 0.00 0.00 0.00 46 1014.0
20260905021058 66 250 2.0 8.0 0.00 0.00 0.00 46 1014.0
20260905020600 67 278 4.0 9.0 0.00 0.00 0.00 45 1014.1
20260905020100 67 254 3.0 9.0 0.00 0.00 0.00 45 1014.0
20260905015557 67 275 4.0 11.0 0.00 0.00 0.00 44 1014.0
20260905015059 68 281 5.0 11.0 0.00 0.00 0.00 44 1014.1
20260905014558 68 266 2.0 8.0 0.00 0.00 0.00 44 1014.1
20260905014057 68 285 3.0 7.0 0.00 0.00 0.00 43 1014.1
20260905013559 69 279 4.0 7.0 0.00 0.00 0.00 42 1014.1
20260905013101 69 270 3.0 9.0 0.00 0.00 0.00 41 1014.0
20260905012557 70 293 4.0 9.0 0.00 0.00 0.00 41 1014.0
20260905012057 70 270 2.0 7.0 0.00 0.00 0.00 41 1014.0
20260905011602 70 245 1.0 8.0 0.00 0.00 0.00 41 1014.1
20260905011056 70 241 2.0 8.0 0.00 0.00 0.00 40 1014.0
20260905010556 70 258 3.0 8.0 0.00 0.00 0.00 40 1014.0
20260905010108 70 237 1.0 5.0 0.00 0.00 0.00 39 1014.0
20260905005555 70 279 2.0 6.0 0.00 0.00 0.00 39 1014.1
20260905005055 70 234 1.0 5.0 0.00 0.00 0.00 39 1014.0
20260905004555 70 221 2.0 8.0 0.00 0.00 0.00 39 1014.0
20260905004056 70 279 3.0 8.0 0.00 0.00 0.00 39 1014.0
20260905003555 70 265 3.0 7.0 0.00 0.00 0.00 38 1014.1
20260905003055 70 270 3.0 8.0 0.00 0.00 0.00 38 1014.0
20260905002554 71 268 3.0 9.0 0.00 0.00 0.00 37 1014.0
20260905002055 70 232 2.0 9.0 0.00 0.00 0.00 37 1014.0
20260905001555 71 261 4.0 10.0 0.00 0.00 0.00 36 1013.9
20260905001054 71 247 5.0 10.0 0.00 0.00 0.00 36 1014.0
20260905000555 71 277 6.0 11.0 0.00 0.00 0.00 35 1013.9
20260905000054 71 283 7.0 11.0 0.00 0.00 0.00 36 1013.9
20260904235555 71 277 3.0 8.0 0.00 0.00 0.00 36 1013.9
20260904235053 71 279 4.0 8.0 0.00 0.00 0.00 35 1013.9
20260904234554 71 257 3.0 12.0 0.00 0.00 0.00 36 1013.9
20260904234052 71 280 2.0 10.0 0.00 0.00 0.00 37 1013.8
20260904233552 72 257 3.0 10.0 0.00 0.00 0.00 37 1014.0
20260904233052 73 204 4.0 8.0 0.00 0.00 0.00 38 1013.9
20260904232551 73 270 1.0 11.0 0.00 0.00 0.00 38 1013.9
20260904232052 73 213 5.0 11.0 0.00 0.00 0.00 40 1013.9
20260904231551 73 205 3.0 13.0 0.00 0.00 0.00 41 1013.9
20260904231051 72 284 6.0 13.0 0.00 0.00 0.00 42 1013.8
20260904230554 72 257 4.0 10.0 0.00 0.00 0.00 42 1013.7
20260904230057 72 224 6.0 10.0 0.00 0.00 0.00 41 1013.9
20260904225549 72 184 5.0 12.0 0.00 0.00 0.00 42 1014.0
20260904225050 71 286 3.0 14.0 0.00 0.00 0.00 43 1014.0
20260904224604 72 209 4.0 9.0 0.00 0.00 0.00 42 1014.0
20260904224052 73 196 3.0 11.0 0.00 0.00 0.00 42 1014.1
20260904223552 72 246 4.0 10.0 0.00 0.00 0.00 44 1014.1
20260904223048 72 258 5.0 11.0 0.00 0.00 0.00 45 1014.1
20260904222548 71 186 3.0 17.0 0.00 0.00 0.00 46 1014.1
20260904222048 73 225 8.0 17.0 0.00 0.00 0.00 44 1014.1
20260904221547 72 238 5.0 11.0 0.00 0.00 0.00 45 1014.1
20260904221046 72 260 3.0 14.0 0.00 0.00 0.00 45 1014.2
20260904220546 71 171 8.0 14.0 0.00 0.00 0.00 45 1014.2
20260904220044 71 190 6.0 12.0 0.00 0.00 0.00 45 1014.1
20260904215543 70 171 5.0 19.0 0.00 0.00 0.00 46 1014.1
20260904215043 69 202 6.0 19.0 0.00 0.00 0.00 48 1014.2
20260904214544 69 211 10.0 16.0 0.00 0.00 0.00 47 1014.0
20260904214043 70 185 8.0 15.0 0.00 0.00 0.00 48 1014.1
20260904213545 71 211 5.0 12.0 0.00 0.00 0.00 47 1014.1
20260904213043 70 206 5.0 17.0 0.00 0.00 0.00 47 1014.2
20260904212543 71 248 7.0 17.0 0.00 0.00 0.00 47 1014.2
20260904212041 70 209 6.0 15.0 0.00 0.00 0.00 48 1014.2
20260904211541 70 194 8.0 15.0 0.00 0.00 0.00 49 1014.2
20260904211044 69 169 7.0 13.0 0.00 0.00 0.00 50 1014.1
20260904210541 70 178 7.0 13.0 0.00 0.00 0.00 49 1014.1
20260904210041 70 222 2.0 12.0 0.00 0.00 0.00 50 1014.1
20260904205541 70 173 3.0 10.0 0.00 0.00 0.00 50 1014.1
20260904205039 71 123 2.0 10.0 0.00 0.00 0.00 51 1014.1
20260904204539 70 81 2.0 10.0 0.00 0.00 0.00 52 1014.0
20260904204041 69 180 2.0 10.0 0.00 0.00 0.00 54 1014.0
20260904203537 68 254 2.0 8.0 0.00 0.00 0.00 59 1014.0
20260904203044 67 251 4.0 8.0 0.00 0.00 0.00 61 1014.0
20260904202537 67 242 3.0 8.0 0.00 0.00 0.00 61 1014.0
20260904202036 67 248 2.0 8.0 0.00 0.00 0.00 62 1013.9
20260904201536 67 231 3.0 8.0 0.00 0.00 0.00 62 1013.9
20260904201036 67 277 2.0 11.0 0.00 0.00 0.00 62 1013.9
20260904200536 67 278 4.0 11.0 0.00 0.00 0.00 63 1013.7
20260904200035 66 276 2.0 8.0 0.00 0.00 0.00 63 1013.8
20260904195535 67 286 4.0 8.0 0.00 0.00 0.00 62 1013.7
20260904195036 67 265 2.0 11.0 0.00 0.00 0.00 63 1013.7
20260904194535 67 277 5.0 11.0 0.00 0.00 0.00 62 1013.8
20260904194035 67 277 5.0 10.0 0.00 0.00 0.00 62 1013.8
20260904193534 67 300 3.0 10.0 0.00 0.00 0.00 63 1013.9
20260904193034 67 280 4.0 8.0 0.00 0.00 0.00 64 1013.9
20260904192537 67 262 2.0 9.0 0.00 0.00 0.00 65 1014.0
20260904192033 67 237 4.0 10.0 0.00 0.00 0.00 64 1014.0
20260904191533 67 275 4.0 10.0 0.00 0.00 0.00 65 1014.1
20260904191034 67 294 6.0 11.0 0.00 0.00 0.00 65 1014.0
20260904190535 66 288 3.0 8.0 0.00 0.00 0.00 67 1014.1
20260904190033 66 273 2.0 8.0 0.00 0.00 0.00 66 1014.1
20260904185532 67 186 2.0 6.0 0.00 0.00 0.00 66 1014.1
20260904185035 66 194 1.0 7.0 0.00 0.00 0.00 66 1014.1
20260904184535 67 194 3.0 7.0 0.00 0.00 0.00 66 1014.1
20260904184033 66 245 2.0 8.0 0.00 0.00 0.00 67 1014.1
20260904183533 66 214 4.0 8.0 0.00 0.00 0.00 66 1014.1
20260904183031 67 282 3.0 8.0 0.00 0.00 0.00 67 1014.1
20260904182530 66 179 2.0 10.0 0.00 0.00 0.00 66 1014.1
20260904182031 66 180 6.0 10.0 0.00 0.00 0.00 67 1014.1
20260904181530 67 286 3.0 7.0 0.00 0.00 0.00 66 1014.0
20260904181030 66 226 2.0 8.0 0.00 0.00 0.00 67 1014.0
20260904180528 66 150 3.0 8.0 0.00 0.00 0.00 68 1014.0
20260904180025 65 188 3.0 7.0 0.00 0.00 0.00 70 1014.0
20260904175525 65 72 2.0 6.0 0.00 0.00 0.00 73 1014.1
20260904175023 63 171 2.0 5.0 0.00 0.00 0.00 73 1014.1
20260904174523 63 173 1.0 4.0 0.00 0.00 0.00 74 1014.0
20260904174023 63 216 0.0 3.0 0.00 0.00 0.00 76 1014.0
20260904173523 63 269 0.0 7.0 0.00 0.00 0.00 78 1014.0
20260904173031 62 161 3.0 7.0 0.00 0.00 0.00 77 1014.0
20260904172523 62 273 2.0 5.0 0.00 0.00 0.00 78 1014.0
20260904172022 61 265 2.0 5.0 0.00 0.00 0.00 80 1014.0
20260904171520 61 205 2.0 7.0 0.00 0.00 0.00 81 1014.0
20260904171020 61 275 2.0 7.0 0.00 0.00 0.00 81 1013.9
20260904170519 61 279 3.0 8.0 0.00 0.00 0.00 82 1013.8
20260904170018 60 267 3.0 8.0 0.00 0.00 0.00 82 1013.6
20260904165517 60 279 3.0 7.0 0.00 0.00 0.00 83 1013.7
20260904165017 60 263 3.0 7.0 0.00 0.00 0.00 83 1013.6
20260904164516 60 256 2.0 7.0 0.00 0.00 0.00 83 1013.5
20260904164016 60 277 2.0 5.0 0.00 0.00 0.00 84 1013.6
20260904163514 59 224 2.0 5.0 0.00 0.00 0.00 84 1013.5
20260904163014 59 280 2.0 7.0 0.00 0.00 0.00 84 1013.5
20260904162613 59 270 4.0 7.0 0.00 0.00 0.00 84 1013.3
20260904162013 59 286 2.0 4.0 0.00 0.00 0.00 84 1013.2
20260904161511 59 226 1.0 4.0 0.00 0.00 0.00 85 1013.3
20260904161012 59 277 1.0 4.0 0.00 0.00 0.00 84 1013.1
20260904160511 59 271 1.0 4.0 0.00 0.00 0.00 84 1013.2
20260904160016 59 247 1.0 3.0 0.00 0.00 0.00 84 1013.2
20260904155512 59 248 0.0 4.0 0.00 0.00 0.00 85 1013.2
20260904155008 58 246 1.0 7.0 0.00 0.00 0.00 85 1013.1
20260904154508 58 281 2.0 7.0 0.00 0.00 0.00 85 1013.1
20260904154006 58 277 2.0 5.0 0.00 0.00 0.00 85 1013.1
20260904153505 58 265 2.0 6.0 0.00 0.00 0.00 85 1013.1
20260904153005 58 278 3.0 6.0 0.00 0.00 0.00 85 1013.1
20260904152505 59 206 0.0 2.0 0.00 0.00 0.00 85 1013.1
20260904152002 58 173 1.0 2.0 0.00 0.00 0.00 84 1013.0
20260904151502 58 94 0.0 3.0 0.00 0.00 0.00 84 1013.0
20260904151002 58 90 0.0 3.0 0.00 0.00 0.00 84 1013.0
20260904150501 58 93 0.0 0.0 0.00 0.00 0.00 84 1013.0
20260904150004 58 93 0.0 1.0 0.00 0.00 0.00 84 1012.9
20260904145601 58 93 0.0 1.0 0.00 0.00 0.00 85 1012.8
20260904145100 58 91 0.0 0.0 0.00 0.00 0.00 85 1012.8
20260904144602 58 91 0.0 0.0 0.00 0.00 0.00 85 1012.8
20260904144058 58 91 0.0 0.0 0.00 0.00 0.00 85 1012.7
20260904143557 57 91 0.0 0.0 0.00 0.00 0.00 85 1012.7
20260904143056 57 91 0.0 0.0 0.00 0.00 0.00 85 1012.6
20260904142555 58 91 0.0 0.0 0.00 0.00 0.00 85 1012.6
20260904142054 58 90 0.0 0.0 0.00 0.00 0.00 85 1012.5
20260904141555 57 90 0.0 0.0 0.00 0.00 0.00 84 1012.4
20260904141051 58 90 0.0 0.0 0.00 0.00 0.00 84 1012.5